Cloud_Cover
0 0 0 0 0 0 0 0 0 0 0 0 0 0 0 0 0 0 0 0 0 0 0 0 0 0 0 0 0 0 0 0 0 0 0 0 0 0 0 0 0 0 0 0 0 0 0 0 0 0 0 0 0 0 0 0 0 0 0 0 0 0 0 0 0 0 0 8 12 20 20 36 44 44 32 32 24 20 0 8 8 0 0 0 0 0 0 0 0 0 12 20 32 44 24 12 8 12 8 8 0 0 0
0 0 0 0 0 0 0 0 0 0 0 0 0 0 0 0 0 0 0 0 0 8 20 12 8 0 0 0 0 0 0 0 0 0 0 0 0 0 0 0 0 0 0 0 0 0 0 0 0 0 0 0 0 0 0 0 0 0 0 0 0 0 0 0 0 0 0 0 8 12 44 36 44 44 32 36 24 12 0 44 36 20 8 0 0 0 0 0 0 0 0 0 12 32 36 44 32 12 12 24 24 12 0
0 0 0 0 0 0 0 0 0 0 0 0 0 0 0 8 0 0 0 20 32 36 36 44 32 24 20 8 0 0 0 0 0 0 8 8 8 8 0 0 0 0 0 0 0 0 0 0 0 0 0 0 0 0 0 0 0 0 0 0 0 0 0 0 0 0 0 0 0 8 12 24 36 48 44 20 8 8 20 24 36 36 32 12 0 0 0 0 0 0 0 0 0 8 12 12 8 12 24 36 32 24 24
0 0 0 0 0 0 0 0 0 0 0 12 12 12 8 24 32 32 32 24 32 36 32 24 24 24 32 12 8 0 0 0 8 8 0 12 12 8 12 0 0 0 0 0 0 0 0 0 0 0 0 0 0 0 0 0 0 0 0 0 0 0 0 0 0 0 0 0 0 0 0 8 20 32 24 20 8 8 12 8 12 20 12 12 20 20 8 20 12 0 0 0 0 0 0 0 0 12 36 24 20 20 36
0 0 0 0 0 0 0 0 0 0 8 20 20 20 12 12 20 20 8 12 20 24 20 24 24 20 12 8 0 0 0 0 8 8 0 12 12 8 8 0 0 0 0 0 0 0 0 0 0 0 0 0 0 0 0 0 0 0 0 0 0 0 0 0 0 0 0 0 0 0 8 0 0 8 8 8 8 8 12 12 12 12 24 20 24 32 24 24 24 20 0 0 0 0 0 0 0 0 0 8 12 20 20
0 0 0 0 0 0 0 0 0 12 32 12 24 36 20 12 12 8 8 8 12 20 20 20 12 12 12 8 0 0 0 0 8 8 0 0 0 0 0 0 0 0 0 0 0 0 0 0 0 0 0 0 0 0 0 0 0 0 0 0 0 0 0 0 0 0 0 0 0 0 0 0 0 0 0 8 8 8 8 32 32 20 8 32 36 32 36 24 32 32 8 8 0 0 0 0 0 0 0 0 0 0 8
0 0 0 0 0 0 0 8 20 32 32 24 24 24 20 20 12 8 0 20 20 12 12 20 20 12 20 8 0 0 0 0 0 0 0 0 0 0 0 0 0 0 0 0 0 0 0 0 0 0 0 0 0 0 0 0 0 0 0 0 0 0 0 0 0 0 0 0 0 0 0 0 0 0 0 8 8 8 12 8 8 20 48 20 12 20 12 8 12 24 12 24 20 8 0 0 0 0 0 0 0 0 0
0 0 0 0 0 0 8 36 44 44 48 48 32 12 12 8 8 20 24 12 12 12 8 20 12 8 12 8 0 0 0 0 0 0 0 0 0 0 0 0 0 0 0 0 0 0 0 0 0 0 0 0 0 0 0 0 0 0 0 0 0 0 0 0 0 0 0 0 0 0 0 0 0 0 0 8 8 20 36 12 8 12 20 12 8 0 0 0 0 0 12 36 44 32 12 20 8 0 0 0 0 0 0
0 0 0 0 8 12 32 44 36 24 8 24 24 20 12 12 12 12 12 32 24 32 64 24 20 20 12 12 8 0 0 0 0 0 0 0 0 0 0 0 0 0 0 0 0 0 0 0 0 0 0 0 0 0 0 0 0 0 0 0 0 0 0 0 0 0 0 0 0 0 8 8 20 24 8 12 20 20 20 24 12 8 8 12 12 8 0 0 0 0 8 20 44 56 48 20 20 20 0 0 0 0 0
0 0 0 0 0 12 32 20 20 24 0 12 12 8 8 12 20 20 12 24 20 12 20 24 20 12 12 68 44 0 0 0 0 0 0 0 0 0 0 0 0 0 0 0 0 0 0 0 0 0 0 0 0 0 0 0 0 0 0 0 0 0 0 0 0 0 0 0 0 0 0 0 0 0 0 12 24 32 36 24 24 20 8 12 8 8 12 32 20 0 0 8 20 32 24 12 24 36 12 24 20 8 0
0 0 0 0 0 0 0 0 0 0 8 12 12 12 8 8 8 12 36 20 20 20 32 12 12 12 12 12 8 0 0 0 0 0 0 0 0 0 0 0 0 0 0 0 0 0 0 0 0 0 0 0 0 0 0 0 0 0 0 0 0 0 0 0 0 0 0 0 0 0 8 0 0 0 8 8 8 20 44 32 20 12 12 8 8 12 32 36 20 8 0 12 20 20 12 12 12 8 8 36 36 24 20
0 0 0 0 0 0 0 0 0 8 8 12 8 8 8 8 8 8 8 20 24 24 20 12 8 12 20 24 12 0 0 0 0 0 0 0 0 0 0 0 0 0 0 0 0 0 0 0 0 0 0 0 0 0 0 0 0 0 0 0 0 0 0 0 0 0 0 8 8 0 12 20 12 8 8 12 12 12 12 20 32 32 12 20 12 12 12 8 20 32 24 12 12 12 20 8 8 20 20 48 36 20 48
0 0 0 0 0 0 0 0 0 0 0 0 0 8 8 0 8 12 8 12 20 20 20 8 0 0 0 12 8 0 0 0 0 0 0 0 0 0 0 0 0 0 0 0 0 0 0 0 0 0 0 0 0 0 0 0 0 0 0 0 0 0 0 0 0 0 0 8 8 8 8 20 20 20 12 20 20 20 20 8 8 8 12 44 32 12 44 12 24 48 48 24 12 8 0 8 8 8 20 8 8 20 44
0 0 0 0 0 0 0 0 0 0 0 0 0 0 0 0 0 0 0 0 0 8 12 0 0 0 0 0 0 0 0 0 0 0 0 0 0 0 0 0 0 0 0 0 0 0 0 0 0 0 0 0 0 0 0 0 0 0 0 0 0 0 0 0 0 0 0 8 12 12 8 12 20 20 20 36 32 32 36 12 12 12 12 8 8 8 20 12 12 8 0 0 8 12 20 8 0 8 12 8 8 8 8
0 0 0 0 0 0 0 0 0 0 0 0 0 0 0 0 0 0 0 0 0 0 0 0 0 0 0 0 0 0 0 0 0 0 0 0 0 0 0 0 0 0 0 0 0 0 0 0 0 0 0 0 0 0 0 0 0 0 0 0 0 0 0 0 0 0 0 8 12 20 8 24 32 32 36 36 36 32 32 32 20 8 12 12 8 8 20 20 20 12 12 20 12 12 24 12 12 20 20 24 12 0 0
0 0 0 0 0 0 0 0 0 0 0 0 0 0 0 0 0 0 0 0 0 0 0 0 0 0 0 0 0 0 0 0 0 0 0 0 0 0 0 0 0 0 0 0 0 0 0 0 0 0 0 0 0 0 0 0 0 0 0 0 0 0 0 0 0 0 0 8 8 8 8 20 12 8 24 32 36 36 44 48 24 12 32 12 12 20 12 20 12 12 20 32 36 36 24 32 32 32 24 36 20 8 8
0 0 0 0 0 0 0 0 0 0 0 0 0 0 0 0 0 0 0 0 0 0 0 0 0 0 0 0 0 0 0 0 0 0 0 0 0 0 0 0 0 0 0 0 0 0 0 0 0 0 0 0 0 0 0 0 0 0 0 0 0 0 0 0 0 0 0 0 0 0 0 0 0 0 8 24 36 44 24 48 44 32 32 12 20 20 12 8 0 0 0 20 48 64 36 36 44 36 20 24 12 8 8
0 0 0 0 0 0 0 0 0 0 0 0 0 0 0 0 0 0 0 0 0 0 0 0 0 0 0 0 0 0 0 0 0 0 0 0 0 0 0 0 0 0 0 0 0 0 0 0 0 0 0 0 0 0 0 0 0 0 0 0 0 0 0 0 0 0 0 0 0 0 0 0 0 0 0 8 20 24 12 24 36 32 20 24 20 12 20 0 0 8 12 32 48 48 24 24 36 36 20 8 8 12 8
0 0 0 0 0 0 0 0 0 0 0 0 0 0 0 0 0 0 0 0 0 0 0 0 0 0 0 0 0 0 0 0 0 0 0 0 0 0 0 0 0 0 0 0 0 0 0 0 0 0 0 0 0 0 0 0 0 0 0 0 0 0 0 0 0 0 0 0 0 0 0 0 0 0 0 0 0 0 8 0 8 12 0 20 20 8 12 0 0 8 12 20 36 44 36 20 24 32 8 36 36 20 12
0 0 0 0 0 0 0 0 0 0 0 0 0 0 0 0 0 0 0 0 0 0 0 0 0 0 0 0 0 0 0 0 0 0 0 0 0 0 0 0 0 0 0 0 0 0 0 0 0 0 0 0 0 0 0 0 0 0 0 0 0 0 0 0 0 0 0 0 0 0 0 0 0 0 0 0 0 0 0 0 8 8 0 0 0 0 0 0 0 8 8 8 20 32 24 12 20 32 24 44 36 24 32
0 0 0 0 0 0 0 0 0 0 0 0 0 0 0 8 8 0 0 0 0 0 0 0 0 0 0 0 0 0 0 0 0 0 0 0 0 0 0 0 0 0 0 0 0 0 0 0 0 0 0 0 0 0 0 0 0 0 0 0 0 0 0 0 0 0 0 0 0 0 0 0 0 0 0 0 0 0 0 0 0 8 12 0 0 8 8 8 12 12 0 24 36 36 20 12 12 20 32 24 44 48 24
0 0 20 20 12 8 0 0 0 8 36 20 8 12 48 48 32 12 0 0 0 0 0 0 0 0 0 0 0 0 0 0 0 0 0 0 0 0 0 0 0 0 0 0 0 0 0 0 0 0 0 0 0 0 0 0 0 0 0 0 0 0 0 0 0 0 0 0 0 0 0 0 0 0 0 0 0 0 0 0 0 0 8 0 12 20 0 0 12 20 12 32 48 56 20 44 48 48 64 36 36 44 32
12 44 76 68 48 24 0 0 0 20 48 20 0 8 36 68 56 24 0 0 0 0 0 0 0 0 0 0 0 0 0 0 0 0 0 0 0 0 0 0 0 0 0 0 0 0 0 0 0 0 0 0 0 0 0 0 0 0 0 0 0 0 0 0 0 0 0 0 0 0 0 0 0 0 0 0 0 0 0 0 0 0 0 8 12 8 0 0 20 24 12 20 24 36 44 44 48 56 56 36 32 24 32
56 88 92 92 80 48 0 0 8 12 12 0 0 0 0 20 20 8 0 0 0 0 0 0 0 0 0 0 0 0 0 0 0 0 0 0 0 0 0 0 0 0 0 0 0 0 0 0 0 0 0 0 0 0 0 0 0 0 0 0 0 0 0 0 0 0 0 0 0 0 0 0 0 0 0 0 0 0 0 0 0 0 0 8 8 8 8 8 12 20 44 20 12 20 24 20 20 32 32 32 24 20 24
80 80 44 36 24 12 0 0 0 0 0 0 0 0 0 0 0 0 0 0 0 0 0 0 0 0 0 0 0 0 0 0 0 0 0 0 0 0 0 0 0 0 0 0 0 0 0 0 0 0 0 0 0 0 0 0 0 0 0 0 0 0 0 0 0 0 0 0 0 0 0 0 0 0 0 0 0 0 0 0 0 0 0 0 0 8 8 8 8 8 12 8 8 8 12 12 20 20 12 32 24 24 32
48 32 8 0 0 0 0 0 0 0 0 0 0 0 0 0 0 0 0 0 0 0 0 0 0 0 0 0 0 0 0 0 0 0 0 0 0 0 0 0 0 0 0 0 0 0 0 0 0 0 0 0 0 0 0 0 0 0 0 0 0 0 0 0 0 0 0 0 0 0 0 0 0 0 0 0 0 0 0 0 0 0 0 0 0 0 0 8 20 20 12 8 8 8 8 8 12 20 12 12 24 32 32
20 20 0 0 0 0 0 0 0 0 0 0 0 0 0 0 0 0 0 0 0 0 0 0 0 0 0 0 0 0 0 0 0 0 0 0 0 0 0 0 0 0 0 0 0 0 0 0 0 0 0 0 0 0 0 0 0 0 0 0 0 0 0 0 0 0 0 0 0 0 0 0 0 0 0 0 0 0 0 0 0 0 0 0 0 0 0 12 24 24 12 8 0 0 0 8 12 20 12 32 32 24 32
12 12 0 0 0 0 0 0 0 0 0 0 0 0 0 0 0 0 0 0 0 0 0 0 0 0 0 0 0 0 0 0 0 0 0 0 0 0 0 0 0 0 0 0 0 0 0 0 0 0 0 0 0 0 0 0 0 0 0 0 0 0 0 0 0 0 0 0 0 0 0 0 0 0 0 0 0 0 0 0 0 0 0 0 0 0 0 0 8 8 12 8 0 0 0 0 0 8 8 20 24 32 32
0 0 0 0 0 0 0 0 0 0 0 0 0 0 0 0 0 0 0 0 0 0 0 0 0 0 0 0 0 0 0 0 0 0 0 0 0 0 0 0 0 0 0 0 0 0 0 0 0 0 0 0 0 0 0 0 0 0 0 0 0 0 0 0 0 0 0 0 0 0 0 0 0 0 0 0 0 0 0 0 0 0 0 0 0 0 0 0 0 0 12 20 8 0 0 0 0 0 12 20 20 12 8
8 12 0 0 0 0 0 0 0 0 0 0 0 0 0 0 0 0 0 0 0 0 0 0 0 0 0 0 0 0 0 0 0 0 0 0 0 0 0 0 0 0 0 0 0 0 0 0 0 0 0 0 0 0 0 0 0 0 0 0 0 0 0 0 0 0 0 0 0 0 0 0 0 0 0 0 0 0 0 0 0 0 0 0 0 0 0 0 0 0 0 12 20 20 0 0 0 0 0 8 12 12 8
48 76 20 0 0 0 0 0 0 0 0 0 0 0 0 0 0 0 0 0 0 0 0 0 0 0 0 0 0 0 0 0 0 0 0 0 0 0 0 0 0 0 0 0 0 0 0 0 0 0 0 0 0 0 0 0 0 0 0 0 0 0 0 0 0 0 0 0 0 0 0 0 0 0 0 0 0 0 0 0 0 0 0 0 0 0 0 0 0 0 0 24 20 0 8 0 0 0 12 12 24 32 24
80 88 64 12 0 0 0 0 0 0 0 0 0 0 0 0 0 0 0 0 0 0 0 0 0 0 0 0 0 0 0 0 0 0 0 0 0 0 0 0 0 0 0 0 0 0 0 0 0 0 0 0 0 0 0 0 0 0 0 0 0 0 0 0 0 0 0 0 0 0 0 0 0 0 0 0 0 0 0 0 0 0 0 0 0 0 0 0 0 0 0 0 0 0 0 0 0 0 0 0 20 32 12
36 48 36 8 0 0 0 0 0 0 0 0 0 0 0 0 0 0 0 0 0 0 0 0 0 0 0 0 0 0 0 0 0 0 0 0 0 0 0 0 0 0 0 0 0 0 0 0 0 0 0 0 0 0 0 0 0 0 0 0 0 0 0 0 0 0 0 0 0 0 0 0 0 0 0 0 0 0 0 0 0 0 0 0 0 0 0 0 0 0 0 0 0 0 0 0 8 8 0 0 0 12 36
8 0 0 0 0 0 0 0 0 0 0 0 0 0 0 0 8 8 12 12 12 8 8 8 0 0 0 0 0 0 0 0 0 0 0 0 0 0 0 0 0 0 0 0 0 0 0 0 0 0 0 0 0 0 0 0 0 0 0 0 0 0 0 0 0 0 0 0 0 0 0 0 0 0 0 0 0 0 0 0 0 0 0 0 0 0 0 0 0 0 0 0 0 0 8 0 0 0 0 0 0 0 0
12 8 8 0 0 0 0 0 0 0 0 0 0 8 8 12 12 20 20 20 20 20 20 12 12 12 20 12 8 8 0 0 0 0 0 0 0 0 0 0 0 0 0 0 0 0 0 0 0 0 0 0 0 0 0 0 0 0 0 0 0 0 0 0 0 0 0 0 0 0 0 0 0 0 0 0 0 0 0 0 0 0 0 0 0 0 0 0 0 0 0 0 0 0 0 0 0 0 0 0 0 0 0
20 12 12 12 8 8 8 8 8 8 8 8 8 12 20 20 24 24 32 32 32 24 24 24 24 24 32 24 20 12 8 8 0 0 0 0 0 0 0 0 0 0 0 0 0 0 0 0 0 0 0 0 0 0 0 0 0 0 0 0 0 0 0 0 0 0 0 0 0 0 0 0 0 0 0 0 0 0 0 0 0 0 0 0 0 0 0 0 0 0 0 0 0 0 0 0 0 0 0 0 0 0 0
20 20 20 20 20 20 12 12 12 8 8 12 12 20 20 24 36 44 48 44 44 36 36 36 36 36 36 32 24 20 20 12 8 8 0 0 0 0 0 0 0 0 0 0 0 0 8 0 0 0 0 0 0 0 0 0 0 0 0 0 0 0 0 0 0 0 0 0 0 0 0 0 0 0 0 0 0 0 0 0 0 0 0 0 0 0 0 0 0 0 0 0 0 0 0 0 0 0 0 0 0 0 0
24 24 24 24 20 20 20 20 20 12 12 12 20 24 32 32 44 56 64 64 56 56 48 44 44 44 44 36 32 32 24 20 12 12 8 8 0 0 0 8 12 12 12 8 8 8 8 0 0 0 0 0 0 0 0 0 0 0 0 0 0 0 0 0 0 0 0 0 0 0 0 0 0 0 0 0 0 0 0 0 0 0 0 0 0 0 0 0 0 0 0 0 0 0 0 0 0 0 0 0 0 0 0
24 24 20 20 20 12 20 20 12 12 12 20 24 32 36 44 48 48 64 64 64 64 64 64 56 56 48 44 36 32 32 24 20 12 8 12 8 8 8 20 20 20 20 20 12 8 8 8 0 0 0 0 0 0 0 0 0 0 0 0 0 0 0 0 0 0 0 0 0 0 0 0 0 0 0 0 0 0 0 0 0 0 0 0 0 0 0 0 0 0 0 0 0 0 0 0 0 0 0 0 0 0 0
20 20 20 12 12 12 12 12 12 12 20 20 24 36 36 44 48 48 48 64 68 64 64 64 64 64 48 44 36 32 32 24 20 12 12 12 12 8 20 24 32 36 32 32 24 20 12 8 8 0 0 0 0 0 0 0 0 0 0 0 0 0 0 0 0 0 0 0 0 0 0 0 0 0 0 0 0 0 0 0 0 0 0 0 0 0 0 0 0 0 0 0 0 0 0 0 0 0 0 0 0 0 0
20 20 12 12 12 12 8 8 12 12 20 24 24 32 36 48 48 56 56 68 68 68 64 64 64 64 48 36 36 32 24 20 12 12 12 12 12 20 36 44 48 48 44 36 32 24 20 12 12 12 8 0 0 0 0 0 0 0 0 0 0 0 0 0 0 0 0 0 0 0 0 0 0 0 0 0 0 0 0 0 0 0 0 0 0 0 0 0 0 0 0 0 0 0 0 0 0 0 0 0 0 0 0
24 20 20 20 12 12 12 12 12 20 24 24 32 32 44 48 48 56 64 64 68 68 64 56 56 48 44 36 32 24 20 20 12 8 8 8 24 44 64 64 64 56 36 32 32 32 24 20 20 20 20 8 8 8 0 8 8 8 8 0 0 0 0 0 0 0 0 8 12 8 8 8 8 8 8 0 0 0 0 0 0 0 0 0 0 0 0 0 0 0 0 0 0 0 0 0 0 0 0 0 0 0 0
32 32 24 24 20 20 20 20 20 20 20 24 24 32 44 44 48 48 56 56 64 68 64 48 44 44 36 32 24 20 12 12 8 8 8 36 64 76 76 64 48 36 20 20 24 24 32 32 32 32 24 20 12 8 8 8 8 8 8 8 0 0 0 0 8 8 8 12 20 20 20 12 12 12 12 8 0 0 0 0 0 0 0 0 0 0 0 0 0 0 0 8 8 0 0 8 8 8 8 8 0 0 0
36 36 32 24 24 20 20 20 12 8 12 12 20 24 36 36 36 44 48 48 56 64 56 44 36 36 32 24 20 12 12 8 12 12 20 68 80 80 76 56 36 20 12 12 12 20 24 32 32 36 32 32 24 20 8 12 12 8 8 8 0 0 8 8 8 12 20 24 24 24 24 24 20 20 20 12 8 8 0 0 0 0 0 0 0 0 0 0 8 8 12 12 12 12 8 12 12 12 12 12 8 0 0
36 32 24 24 20 20 12 12 8 8 8 12 12 20 24 24 32 36 44 44 48 48 44 36 32 32 32 24 20 12 12 12 24 44 68 80 80 76 56 44 32 24 20 20 20 20 24 24 32 32 32 32 32 24 20 20 20 12 8 8 8 12 20 20 20 20 32 32 32 32 32 24 24 20 20 12 12 8 8 8 0 0 0 0 0 0 0 8 8 12 12 12 20 20 12 20 20 20 12 12 8 0 0
32 32 20 20 20 20 12 20 20 12 8 12 20 20 20 20 24 24 32 32 36 36 36 36 36 36 36 36 32 24 24 36 56 80 88 88 76 56 36 32 20 12 8 12 12 20 24 12 12 12 20 24 32 32 20 24 24 20 12 12 20 24 24 24 24 32 32 32 32 32 32 24 20 20 12 12 8 8 8 8 8 8 0 0 0 0 0 0 8 8 8 12 12 20 20 20 20 20 20 12 8 0 0
32 24 24 20 20 20 20 24 24 20 12 20 20 20 20 20 20 24 24 24 32 32 24 32 36 36 36 36 32 32 36 56 68 88 92 80 64 48 32 20 12 0 0 0 0 0 8 0 0 0 8 12 12 20 12 20 20 24 24 24 24 32 32 32 36 36 44 36 36 32 24 20 20 12 12 8 8 8 8 8 8 8 8 0 0 0 0 0 0 0 0 8 12 12 12 20 20 24 20 12 12 8 0
32 32 24 24 24 24 24 32 24 20 12 12 12 20 20 12 20 20 24 20 24 24 24 32 32 32 32 36 36 44 56 56 56 64 76 64 48 36 20 8 0 0 0 0 0 0 0 0 0 0 0 8 8 12 12 12 12 20 20 24 32 36 44 44 44 48 48 44 36 32 24 20 20 20 12 12 12 12 12 12 8 8 0 0 0 0 8 8 0 0 8 8 8 12 12 12 12 20 20 12 8 8 0
36 36 32 32 32 32 32 32 24 24 20 12 12 8 8 12 20 24 20 24 24 32 24 24 24 32 44 48 44 44 48 44 36 36 44 44 36 24 12 0 0 0 0 0 0 0 0 0 8 8 8 8 8 12 8 8 8 8 8 20 24 36 48 48 56 56 56 48 44 32 32 24 24 24 24 20 24 24 20 20 12 12 12 12 8 8 12 12 12 12 12 12 12 8 12 8 8 12 20 8 8 0 0
44 44 36 36 32 32 32 32 32 32 32 24 12 8 8 12 24 24 24 32 36 36 32 32 24 32 48 56 48 44 44 36 32 24 24 24 24 20 8 0 0 0 0 0 0 0 0 8 12 12 8 8 8 8 8 8 8 8 8 12 20 24 36 48 56 48 48 44 36 32 24 32 32 32 24 32 24 24 24 24 24 20 24 20 12 8 8 20 24 24 32 24 24 20 12 12 12 12 12 12 8 8 8
44 44 44 44 36 36 36 36 36 32 24 20 12 8 8 20 24 32 36 44 48 48 48 48 44 44 56 64 56 56 56 44 36 32 24 12 8 8 8 8 8 0 0 0 0 0 0 8 12 12 12 8 8 8 8 8 8 0 0 0 8 20 24 32 44 44 24 32 32 32 32 24 20 20 12 20 20 20 20 24 24 24 24 24 20 20 12 24 32 36 44 36 36 32 24 20 20 12 12 20 20 20 12
44 44 48 48 44 44 36 36 32 32 24 24 20 20 24 32 36 44 48 56 64 64 64 68 64 64 56 68 68 56 56 48 36 32 32 20 12 8 8 12 12 12 12 8 0 0 8 12 12 12 12 8 8 8 8 12 8 8 0 8 8 12 12 20 20 20 12 20 20 20 20 8 8 8 8 8 8 12 12 12 20 20 24 24 24 24 20 24 32 36 24 24 24 24 24 24 24 20 20 32 32 32 24
56 56 56 56 48 48 44 44 36 32 32 32 32 32 24 32 36 48 64 68 68 68 56 68 76 76 56 48 48 44 44 36 32 20 12 12 8 8 12 20 24 32 24 32 20 8 8 8 12 8 8 8 8 8 0 12 20 12 12 24 24 20 12 12 8 8 8 12 12 12 12 8 8 0 0 8 8 8 8 12 12 20 20 24 24 24 20 20 20 20 24 24 24 24 24 20 20 20 24 20 24 32 32
64 64 64 64 56 48 48 48 44 44 36 36 36 36 32 36 44 56 76 80 80 80 76 64 64 68 64 48 32 20 12 12 12 12 12 12 12 20 36 32 24 24 24 36 36 24 12 0 8 12 8 0 8 20 32 36 36 32 32 44 44 36 32 20 12 12 20 20 12 8 8 20 20 12 0 0 8 8 8 12 12 20 24 24 24 20 20 20 20 24 32 24 24 24 24 20 20 20 20 12 12 20 20
64 56 56 56 56 56 56 56 56 56 48 44 44 44 44 44 64 88 88 88 80 76 76 64 56 48 56 48 24 0 8 8 8 8 12 12 20 24 48 36 32 24 20 32 36 36 24 20 20 20 12 8 20 36 48 48 48 44 44 44 48 44 44 36 36 32 24 20 20 20 24 24 24 24 20 8 8 8 0 12 12 12 8 12 12 20 32 32 32 32 32 32 32 24 20 20 12 12 8 8 8 8 8
44 36 36 44 48 48 56 56 56 64 48 48 56 56 56 68 80 88 88 80 68 64 64 56 48 36 36 24 20 8 0 0 0 0 12 20 32 36 36 44 44 32 24 24 24 32 32 20 32 44 32 32 36 44 36 48 48 48 48 44 44 48 44 44 44 44 36 32 24 32 32 36 36 32 32 36 32 20 12 12 12 12 20 20 24 32 36 36 36 32 24 24 24 20 12 12 8 8 8 8 0 0 0
44 44 44 44 44 44 44 44 48 56 64 64 68 68 68 80 88 88 80 80 68 56 48 48 32 20 12 0 0 0 0 0 0 0 0 24 32 32 32 32 32 32 32 32 36 44 44 56 68 76 64 44 32 32 24 24 32 36 36 24 24 24 36 36 32 20 24 36 44 44 48 48 48 48 48 48 44 32 20 12 20 20 24 24 32 32 24 24 24 24 20 20 20 12 8 8 8 8 0 0 0 0 0
36 44 48 48 48 48 48 48 48 64 68 68 76 76 80 88 88 88 88 80 64 48 36 32 24 20 0 0 8 8 0 0 0 0 0 0 12 24 24 24 24 24 32 36 48 56 48 56 64 68 64 44 20 8 12 12 12 20 20 20 12 12 20 20 20 24 32 36 44 48 56 56 56 56 48 44 36 32 20 12 12 12 12 20 20 20 12 12 12 12 8 8 8 8 0 0 0 0 0 0 0 0 0
44 48 56 56 56 56 64 64 76 80 88 80 80 80 88 88 88 88 88 76 56 36 24 20 24 24 8 20 20 8 0 0 0 0 0 0 12 24 32 24 20 20 24 32 32 32 44 56 48 48 56 56 36 12 8 12 20 20 24 24 24 24 24 24 24 32 44 48 48 56 48 48 48 44 44 36 32 24 20 12 12 12 12 12 12 8 0 0 0 0 0 0 0 0 0 0 0 0 0 0 0 0 0
44 48 56 56 64 64 68 76 80 88 76 80 88 88 88 88 80 68 64 56 44 36 24 20 24 32 36 24 20 12 8 0 0 0 0 0 12 20 24 24 24 24 24 24 32 36 36 48 48 48 48 48 48 44 20 12 12 24 32 32 32 32 32 32 32 36 36 44 44 44 44 32 32 32 32 24 24 24 20 12 8 8 0 0 0 0 0 0 0 0 0 0 0 0 0 0 0 0 0 0 0 0 0
44 48 48 48 56 56 64 76 80 80 88 88 88 88 80 88 76 64 48 36 36 32 20 24 32 44 48 36 24 20 12 8 8 0 0 20 24 24 24 32 32 32 24 32 36 48 48 48 48 48 56 48 48 48 48 24 20 24 24 24 24 32 32 32 32 32 36 36 36 36 20 24 24 24 24 20 20 20 12 8 8 0 0 0 0 0 0 0 0 0 0 0 0 0 0 0 0 0 0 0 0 0 0